Weather History for KAHN - December, 2013

Change the Weather History Date:

Wednesday, December 4, 2013

  Actual Average Record
Temperature  
Mean Temperature 63 °F 48 °F  
Max Temperature 71 °F 59 °F 75 °F (1956)
Min Temperature 55 °F 37 °F 20 °F (1979)
Degree Days  
Heating Degree Days 2 17  
Month to date heating degree days 47 67  
Since 1 July heating degree days 609 547  
Growing Degree Days 13 (Base 50)    
Moisture  
Dew Point 59 °F    
Average Humidity 89    
Maximum Humidity 100    
Minimum Humidity 78    
Precipitation  
Precipitation 0.15 in 0.13 in 2.67 in (1945)
Month to date precipitation 0.85 0.51  
Year to date precipitation 53.12 43.11  
Snow  
Snow 0.00 in 0.00 in 0.00 in (2001)
Month to date snowfall 0.0 0.0  
Since 1 July snowfall 0.0 0.0  
Snow Depth 0.00 in    
Sea Level Pressure  
Sea Level Pressure 29.99 in    
Wind  
Wind Speed 2 mph (SSE)    
Max Wind Speed 8 mph    
Max Gust Speed 12 mph    
Visibility 4 miles    
Events Fog , Rain    
T = Trace of Precipitation, MM = Missing Value Source: NWS Daily Summary

Daily Weather History Graph

Daily Weather History Graph

Search for Another Location

Airport or City:

Trip Planner

Search our weather history database for the weather conditions in past years. The results will help you decide how hot, cold, wet, or windy it might be!

Date:

Astronomy

Dec. 04, 2013 Rise Set
Actual Time 7:23 AM EST 5:24 PM EST
Civil Twilight 6:55 AM EST 5:51 PM EST
Nautical Twilight 6:24 AM EST 6:22 PM EST
Astronomical Twilight 5:54 AM EST 6:52 PM EST
Moon 8:52 AM EST (12/4) 7:31 PM EST (12/4)
Length of Visible Light 10h 55m
Length of Day
10h 00m
Waxing Crescent, 4% of the Moon is Illuminated
Dec 4
Waxing Crescent
Dec 9
First Quarter
Dec 17
Full
Dec 25
Last Quarter
Jan 1
New

Hourly Weather History & Observations

Time (EST) Temp. Dew Point Humidity Pressure Visibility Wind Dir Wind Speed Gust Speed Precip Events Conditions
12:15 AM 55.4 °F 55.4 °F 100% 29.93 in 2.0 mi Calm Calm - N/A   Overcast
12:41 AM 55.4 °F 55.4 °F 100% 29.93 in 1.5 mi East 3.5 mph - N/A   Overcast
12:48 AM 55.4 °F 55.4 °F 100% 29.93 in 1.0 mi Calm Calm - N/A   Overcast
12:51 AM 55.9 °F 55.0 °F 97% 29.93 in 0.8 mi Calm Calm - N/A   Overcast
1:24 AM 55.4 °F 55.4 °F 100% 29.93 in 1.5 mi Calm Calm - 0.06 in Rain Light Rain
1:51 AM 55.9 °F 55.0 °F 97% 29.93 in 2.0 mi Calm Calm - 0.06 in   Overcast
2:30 AM 55.4 °F 55.4 °F 100% 29.94 in 1.8 mi Calm Calm - N/A   Overcast
2:51 AM 55.9 °F 55.0 °F 97% 29.94 in 1.8 mi Calm Calm - N/A   Overcast
2:59 AM 55.4 °F 55.4 °F 100% 29.94 in 2.0 mi Calm Calm - N/A   Overcast
3:19 AM 55.4 °F 55.4 °F 100% 29.94 in 1.8 mi Calm Calm - N/A   Overcast
3:51 AM 55.9 °F 55.0 °F 97% 29.94 in 1.5 mi Calm Calm - N/A   Overcast
4:01 AM 55.4 °F 55.4 °F 100% 29.94 in 2.0 mi Calm Calm - N/A   Overcast
4:15 AM 55.4 °F 55.4 °F 100% 29.93 in 1.5 mi East 3.5 mph - N/A   Overcast
4:23 AM 55.4 °F 55.4 °F 100% 29.94 in 1.2 mi Calm Calm - 0.00 in Rain Light Rain
4:47 AM 55.4 °F 55.4 °F 100% 29.94 in 0.5 mi Calm Calm - 0.00 in Fog Fog
4:51 AM 55.9 °F 55.0 °F 97% 29.94 in 0.5 mi Calm Calm - 0.00 in Fog Fog
5:51 AM 55.9 °F 55.0 °F 97% 29.96 in 0.2 mi Calm Calm - N/A Fog Fog
6:51 AM 55.9 °F 55.0 °F 97% 29.99 in 0.2 mi Calm Calm - N/A Fog Fog
7:51 AM 55.0 °F 55.0 °F 100% 30.00 in 0.2 mi Calm Calm - N/A Fog Fog
8:51 AM 55.9 °F 55.9 °F 100% 30.02 in 0.2 mi Calm Calm - N/A Fog Fog
9:51 AM 57.9 °F 57.9 °F 100% 30.05 in 0.2 mi Calm Calm - N/A Fog Fog
10:51 AM 60.1 °F 60.1 °F 100% 30.05 in 0.5 mi South 3.5 mph - N/A Fog Fog
11:07 AM 60.8 °F 60.8 °F 100% 30.05 in 0.8 mi Calm Calm - N/A   Overcast
11:18 AM 60.8 °F 60.8 °F 100% 30.05 in 1.2 mi Calm Calm - N/A   Overcast
11:24 AM 60.8 °F 60.8 °F 100% 30.04 in 2.0 mi South 4.6 mph - N/A   Overcast
11:51 AM 62.1 °F 61.0 °F 96% 30.03 in 3.0 mi Calm Calm - N/A   Overcast
12:09 PM 62.6 °F 60.8 °F 94% 30.02 in 4.0 mi Variable 3.5 mph - N/A   Overcast
12:27 PM 62.6 °F 60.8 °F 94% 30.02 in 5.0 mi SW 5.8 mph - N/A   Overcast
12:51 PM 64.0 °F 61.0 °F 90% 30.00 in 5.0 mi Variable 3.5 mph - N/A   Overcast
1:04 PM 66.2 °F 62.6 °F 88% 30.00 in 6.0 mi Calm Calm - N/A   Haze
1:36 PM 68.0 °F 62.6 °F 83% 29.99 in 7.0 mi Calm Calm - N/A   Overcast
1:46 PM 69.8 °F 62.6 °F 78% 29.98 in 7.0 mi Calm Calm - N/A   Mostly Cloudy
1:51 PM 69.1 °F 62.1 °F 78% 29.97 in 8.0 mi South 5.8 mph - N/A   Mostly Cloudy
2:20 PM 69.8 °F 62.6 °F 78% 29.97 in 8.0 mi South 4.6 mph - N/A   Mostly Cloudy
2:29 PM 69.8 °F 62.6 °F 78% 29.97 in 8.0 mi SSE 5.8 mph - N/A   Mostly Cloudy
2:36 PM 69.8 °F 62.6 °F 78% 29.97 in 8.0 mi Variable 4.6 mph - N/A   Scattered Clouds
2:51 PM 69.1 °F 62.1 °F 78% 29.97 in 8.0 mi SSE 4.6 mph - N/A   Mostly Cloudy
3:51 PM 69.1 °F 62.1 °F 78% 29.97 in 8.0 mi South 4.6 mph - N/A   Mostly Cloudy
4:03 PM 68.0 °F 60.8 °F 78% 29.98 in 8.0 mi SSE 4.6 mph - N/A   Scattered Clouds
4:51 PM 66.0 °F 62.1 °F 87% 29.99 in 6.0 mi SSE 5.8 mph - N/A   Partly Cloudy
5:51 PM 64.9 °F 61.0 °F 87% 30.00 in 7.0 mi SSE 4.6 mph - N/A   Partly Cloudy
6:51 PM 64.0 °F 61.0 °F 90% 30.02 in 7.0 mi SSE 5.8 mph - N/A   Partly Cloudy
7:51 PM 62.1 °F 61.0 °F 96% 30.03 in 5.0 mi South 4.6 mph - N/A   Partly Cloudy
8:35 PM 62.6 °F 60.8 °F 94% 30.04 in 5.0 mi South 6.9 mph - N/A   Overcast
8:51 PM 62.1 °F 61.0 °F 96% 30.04 in 5.0 mi South 5.8 mph - N/A   Overcast
8:58 PM 62.6 °F 60.8 °F 94% 30.05 in 5.0 mi South 5.8 mph - N/A   Overcast
9:38 PM 62.6 °F 60.8 °F 94% 30.05 in 5.0 mi SSE 3.5 mph - N/A   Overcast
9:51 PM 62.1 °F 61.0 °F 96% 30.04 in 5.0 mi Calm Calm - N/A   Overcast
10:51 PM 63.0 °F 61.0 °F 93% 30.05 in 6.0 mi South 3.5 mph - N/A   Overcast
11:25 PM 62.6 °F 60.8 °F 94% 30.07 in 2.0 mi South 5.8 mph - 0.01 in Rain Rain
11:27 PM 62.6 °F 60.8 °F 94% 30.07 in 1.8 mi South 5.8 mph - 0.02 in Rain Rain
11:39 PM 62.6 °F 60.8 °F 94% 30.07 in 2.0 mi Variable 3.5 mph - 0.09 in Rain Light Rain
11:47 PM 62.6 °F 60.8 °F 94% 30.06 in 5.0 mi South 5.8 mph - 0.09 in Rain Light Rain
11:51 PM 62.1 °F 61.0 °F 96% 30.06 in 6.0 mi South 4.6 mph - 0.09 in   Overcast